Location: Unspecified
(0.0000°N, 0.0000°E)
Time: 01:55:06
(UTC+00:00)

Tiros 1 - All Passes

Search period start: 01 November 2014 00:00
Search period end: 11 November 2014 00:00
Orbit: 633 x 667 km, 48.4° (Epoch: 31 October)

Date Brightness Start Highest point End Pass type
(mag) Time Alt. Az. Time Alt. Az. Time Alt. Az.
01 Nov - 03:05:33 10° N 03:08:34 17° NE 03:11:36 10° E visible
01 Nov - 04:46:18 10° WNW 04:50:39 37° SW 04:55:04 10° SSE visible
01 Nov - 15:18:05 10° S 15:22:15 30° SE 15:26:22 10° ENE daylight
01 Nov - 17:00:50 10° W 17:04:20 21° NW 17:07:48 10° N daylight
02 Nov - 03:30:57 10° NNW 03:35:32 56° NE 03:40:11 10° SE visible
02 Nov - 05:16:06 10° WSW 05:17:43 12° SW 05:19:21 10° SSW visible
02 Nov - 15:44:29 10° SW 15:49:13 77° NW 15:53:53 10° NE daylight
03 Nov - 02:17:38 10° NNE 02:20:24 16° NE 02:23:11 10° E visible
03 Nov - 03:58:05 10° WNW 04:02:30 40° SW 04:06:57 10° SSE visible
03 Nov - 14:30:00 10° S 14:34:05 28° SE 14:38:07 10° ENE daylight
03 Nov - 16:12:30 10° WSW 16:16:10 22° NW 16:19:49 10° N daylight
04 Nov - 02:42:51 10° NNW 02:47:23 51° NE 02:51:58 10° SE visible
04 Nov - 04:27:32 10° WSW 04:29:33 13° SW 04:31:34 10° SSW visible
04 Nov - 14:56:18 10° SW 15:01:03 83° NW 15:05:45 10° NE daylight
05 Nov - 01:29:44 10° NNE 01:32:14 14° NE 01:34:44 10° E night (unlit)
05 Nov - 03:09:53 10° WNW 03:14:20 44° SW 03:18:50 10° SSE visible
05 Nov - 13:41:56 10° S 13:45:55 26° SE 13:49:51 10° ENE daylight
05 Nov - 15:24:11 10° WSW 15:28:00 24° NW 15:31:48 10° N daylight
06 Nov - 01:54:45 10° NNW 01:59:13 47° NE 02:03:45 10° SE night (unlit)
06 Nov - 03:39:03 10° W 03:41:22 14° SW 03:43:42 10° SSW visible
06 Nov - 14:08:06 10° SW 14:12:53 90° SE 14:17:36 10° NE daylight
07 Nov - 00:41:53 10° NNE 00:44:03 13° NE 00:46:14 10° ENE night (unlit)
07 Nov - 02:21:40 10° NW 02:26:09 48° SW 02:30:42 10° SSE visible
07 Nov - 12:53:51 10° S 12:57:44 24° SE 13:01:34 10° ENE daylight
07 Nov - 14:35:52 10° WSW 14:39:50 26° NW 14:43:45 10° N daylight
08 Nov - 01:06:39 10° NNW 01:11:03 43° NE 01:15:30 10° ESE night (unlit)
08 Nov - 02:50:36 10° W 02:53:11 15° SW 02:55:47 10° SSW visible
08 Nov - 13:19:55 10° SW 13:24:42 83° SE 13:29:26 10° NE daylight
08 Nov - 23:54:07 10° NNE 23:55:53 12° NE 23:57:39 10° ENE night (unlit)
09 Nov - 01:33:28 10° NW 01:37:59 52° SW 01:42:34 10° SSE night (unlit)
09 Nov - 12:05:47 10° S 12:09:33 23° SE 12:13:16 10° ENE daylight
09 Nov - 13:47:33 10° WSW 13:51:39 28° NW 13:55:42 10° N daylight
10 Nov - 00:18:33 10° NNW 00:22:52 39° NE 00:27:15 10° ESE night (unlit)
10 Nov - 02:02:11 10° W 02:04:59 16° SW 02:07:49 10° SSW night (unlit)
10 Nov - 12:31:43 10° SW 12:36:31 77° SE 12:41:15 10° NE daylight
10 Nov - 23:06:28 10° NE 23:07:41 11° NE 23:08:54 10° ENE night (unlit)
